Minneapolis Crystal, MN

12:52 AM CST on January 19, 2018 (GMT -0600)
Crystal

Weather History for KMIC - November, 2011

Change the Weather History Date:

Tuesday, November 1, 2011

  Actual Average Record
Temperature  
Mean Temperature 52 °F -  
Max Temperature 57 °F 47 °F 66 °F (2000)
Min Temperature 46 °F 31 °F 19 °F (2002)
Degree Days  
Heating Degree Days 14    
Growing Degree Days 2 (Base 50)    
Moisture  
Dew Point 32 °F    
Average Humidity 52    
Maximum Humidity 64    
Minimum Humidity 39    
Precipitation  
Precipitation 0.00 in - - ()
Sea Level Pressure  
Sea Level Pressure 29.93 in    
Wind  
Wind Speed 6 mph (ESE)    
Max Wind Speed 10 mph    
Max Gust Speed -    
Visibility 10 miles    
Events      
Averages and records for this station are not official NWS values.
T = Trace of Precipitation, MM = Missing Value Source: NWS Daily Summary

Daily Weather History Graph

Daily Weather History Graph

Search for Another Location

Airport or City:

Trip Planner

Search our weather history database for the weather conditions in past years. The results will help you decide how hot, cold, wet, or windy it might be!

Date:

Astronomy

Nov. 01, 2011 Rise Set
Actual Time 7:51 AM CDT 6:01 PM CDT
Civil Twilight 7:20 AM CDT 6:32 PM CDT
Nautical Twilight 6:46 AM CDT 7:06 PM CDT
Astronomical Twilight 6:12 AM CDT 7:41 PM CDT
Moon 1:41 PM CDT (11/1) 11:42 PM CDT (11/1)
Length of Visible Light 11h 11m
Length of Day
10h 10m
Waxing Crescent, 40% of the Moon is Illuminated
Nov 1
Waxing Crescent
Nov 2
First Quarter
Nov 10
Full
Nov 18
Last Quarter
Nov 25
New

Hourly Weather History & Observations

Time (CDT) Temp. Windchill Dew Point Humidity Pressure Visibility Wind Dir Wind Speed Gust Speed Precip Events Conditions
12:53 AM 46.9 °F - 28.9 °F 50% 29.91 in 10.0 mi SSE 6.9 mph - N/A   Overcast
1:53 AM 46.0 °F 42.5 °F 28.9 °F 51% 29.90 in 10.0 mi SE 6.9 mph - N/A   Mostly Cloudy
2:53 AM 46.9 °F - 28.9 °F 50% 29.89 in 10.0 mi SSE 5.8 mph - N/A   Overcast
3:53 AM 46.9 °F - 28.9 °F 50% 29.89 in 10.0 mi SSE 4.6 mph - N/A   Overcast
4:53 AM 46.9 °F - 28.9 °F 50% 29.88 in 10.0 mi SSE 6.9 mph - N/A   Overcast
5:53 AM 46.9 °F - 28.9 °F 50% 29.88 in 10.0 mi SSE 6.9 mph - N/A   Mostly Cloudy
6:53 AM 46.9 °F - 28.9 °F 50% 29.86 in 10.0 mi SSE 6.9 mph - N/A   Clear
8:53 AM 46.9 °F - 30.0 °F 52% 29.88 in 10.0 mi SE 4.6 mph - N/A   Clear
9:53 AM 48.0 °F - 30.0 °F 50% 29.89 in 10.0 mi SSE 6.9 mph - N/A   Clear
10:53 AM 48.9 °F - 30.0 °F 48% 29.89 in 10.0 mi South 5.8 mph - N/A   Mostly Cloudy
11:53 AM 51.1 °F - 30.0 °F 44% 29.89 in 10.0 mi Variable 3.5 mph - N/A   Partly Cloudy
2:53 PM 57.0 °F - 32.0 °F 39% 29.89 in 10.0 mi North 8.1 mph - N/A   Partly Cloudy
4:53 PM 55.9 °F - 36.0 °F 47% 29.91 in 10.0 mi NE 4.6 mph - 0.00 in   Overcast
5:53 PM 55.0 °F - 36.0 °F 49% 29.94 in 10.0 mi Calm Calm - N/A   Overcast
7:53 PM 51.1 °F - 39.0 °F 63% 30.01 in 10.0 mi North 5.8 mph - 0.00 in   Overcast
8:53 PM 50.0 °F - 36.0 °F 59% 30.02 in 10.0 mi North 6.9 mph - N/A   Overcast
9:53 PM 48.9 °F - 37.0 °F 64% 30.03 in 10.0 mi NNW 10.4 mph - N/A   Overcast
10:53 PM 48.0 °F - 36.0 °F 63% 30.04 in 10.0 mi North 9.2 mph - N/A   Mostly Cloudy
11:53 PM 48.0 °F - 34.0 °F 58% 30.05 in 10.0 mi North 10.4 mph - N/A   Overcast